www.pogodaiklimat.ru

ПОГОДА в Nangapinoh

  • Прогноз погоды в Nangapinoh
  • Монитор погоды в Nangapinoh
  • Климат города

АРХИВ ПОГОДЫ в Nangapinoh

Время (UTC), дата Ветер
(напр.,м/с)
 
Видим.   Явления Облачность Т
(С)
Тd
(С)
f
(%)
Тe
(С)
Тes
(С)
Комфортность P
(гПа)
Po
(гПа)
Тmin
(С)
Tmax
(С)
R
(мм)
S
(см)
03 8.01 З 2 10 км 8/0 1500 м
[Cu med, cong As op Ci fib]
+28.5 +24.3 78 +40 +50 очень
душно
1009.5 1004.7
06 8.01 С 3 8000 м осадки на расстоянии 9/0
[Cb cap As op Ci fib]
+31.6 +24.9 68 +45 +53 опасность
перегрева
1006.3 1001.6
09 8.01 Ю 2 7000 м в посл. час гроза {дождь} 10/0
[Cb cap As op]
+26.6 +25.8 95 +39 +40 очень
душно
1005.4 1000.6
12 8.01 СВ 2 4000 м зарница {гроза, дождь} 10/0
[Cb cap As op]
+25.0 +24.0 94 +34 +34 очень
душно
1007.6 1002.8 +32.3
15 8.01 штиль 0 3000 м дымка 10/0
[Cb cap As op]
+24.4 +23.8 96 +33 +33 очень
душно
1008.7 1003.9
00 9.01 ЮВ 1 1000 м дымка 10/0 2000 м
[Cu med, cong As op]
+24.0 +23.4 96 +32 +33 очень
душно
1009.4 1004.6 +24.2
03 9.01 С 1 10 км 9/0 2000 м
[Cu med, cong As trans Ci fib]
+28.5 +24.6 79 +40 +51 опасность
солнечного
удара
1009.2 1004.4
06 9.01 СВ 2 10 км 9/0 2000 м
[Cu med, cong Ac As Ci fib]
+31.6 +24.8 67 +45 +55 опасность
перегрева
1007.0 1002.2
09 9.01 С 3 10 км 8/0 2000 м
[Cu med, cong Ac As Ci fib]
+31.8 +24.5 65 +44 +46 опасность
перегрева
1005.1 1000.3
12 9.01 штиль 0 5000 м мгла 8/0
[Cb cap As op Ci fib]
+29.5 +26.4 83 +45 +45 опасность
перегрева
1007.0 1002.2 +33.7
15 9.01 штиль 0 5000 м мгла 8/0
[Cb cap As op Ci fib]
+29.5 +26.4 83 +45 +45 опасность
перегрева
1007.0 1002.2 +33.7
00 10.01 В 1 2000 м мгла 9/0 1500 м
[Cu hum Ac As Ci fib]
+24.7 +23.9 95 +34 +35 очень
душно
1009.8 1005.1 +24.2
03 10.01 З 1 8000 м 9/0 2000 м
[Cu med, cong Ac As]
+29.2 +25.4 80 +43 +50 опасность
перегрева
1010.4 1005.6
06 10.01 З 2 10 км 9/0 2000 м
[Cu med, cong Ac As Ci fib]
+32.0 +23.5 61 +43 +52 опасность
перегрева
1008.2 1003.5
09 10.01 З 1 10 км 9/0 2000 м
[Cu med, cong Ac As Ci fib]
+31.4 +23.9 64 +43 +45 опасность
перегрева
1006.6 1001.8
12 10.01 штиль 0 8000 м 8/0 2000 м
[Cu med, cong As op Ci fib]
+28.7 +26.3 87 +44 +44 опасность
перегрева
1008.0 1003.3 +32.3
15 10.01 штиль 0 2000 м мгла 9/0 2000 м
[Cu med, cong As op Ci fib]
+26.4 +24.9 91 +38 +38 очень
душно
1008.9 1004.1
00 11.01 штиль 0 5000 м мгла 9/0 2000 м
[Cu med, cong Ac As Ci fib]
+24.4 +23.5 95 +33 +35 очень
душно
1010.6 1005.8 +24.3
03 11.01 ЮЗ 2 10 км 9/0 2000 м
[Cu med, cong As op Ci fib]
+29.5 +24.8 76 +42 +52 опасность
перегрева
1010.3 1005.6
06 11.01 СЗ 2 10 км 8/0
[Cb calv As op Ci fib]
+32.6 +23.6 59 +44 +54 опасность
перегрева
1007.5 1002.8
09 11.01 ЮЗ 2 10 км 8/0
[Cb calv As op Ci fib]
+33.3 +24.2 59 +45 +47 опасность
перегрева
1005.4 1000.7
12 11.01 З 1 8000 м зарница 5/0
[Cb cap As trans Ci fib]
+29.6 +26.0 81 +44 +44 опасность
перегрева
1007.8 1003.0 +33.6
15 11.01 ЮЗ 2 5000 м зарница 5/0
[Cb cap As trans Ci fib]
+26.8 +24.9 89 +38 +38 очень
душно
1009.9 1005.2
00 12.01 штиль 0 1000 м мгла 9/0 2000 м
[Cu med, cong As op Ci fib]
+24.4 +23.5 95 +33 +35 очень
душно
1010.1 1005.3 +24.1
03 12.01 СЗ 2 10 км 8/0 2000 м
[Cu med, cong As op Ci fib]
+30.1 +23.9 69 +41 +52 опасность
перегрева
1010.0 1005.2
06 12.01 З 2 10 км 8/0 2000 м
[Cu med, cong As trans Ci fib]
+33.2 +23.0 55 +43 +54 опасность
перегрева
1007.1 1002.4
09 12.01 СЗ 2 8000 м 8/8 300 м
[]
+34.0 +23.9 56 +46 +46 опасность
перегрева
1006.5 1000.2
12 12.01 Ю 2 5000 м в посл. час гроза {дождь} 10/0
[Cb cap As op]
+26.4 +23.4 84 +36 +36 очень
душно
1007.5 1002.7 +34.4
15 12.01 ЮВ 2 2000 м слабый ливневой дождь, в посл. час гроза 10/0
[Cb cap As op]
+24.0 +23.2 95 +32 +32 очень
душно
1009.4 1004.7
00 13.01 штиль 0 1000 м дымка 10/0 2000 м
[Cu med, cong As op]
+23.4 +22.8 96 +33 +33 очень
душно
1009.8 1005.0 +23.4
03 13.01 В 1 7000 м 9/0 2000 м
[Cu med, cong Ac As Ci fib]
+26.8 +23.2 81 +36 +47 очень
душно
1010.7 1005.9
06 13.01 СВ 2 10 км 9/6 330 м
[Cu med, cong Ac As Ci fib]
+30.0 +24.2 71 +42 +46 опасность
перегрева
1008.6 1003.8
09 13.01 СЗ 1 10 км 9/0
[Cb calv As op Ci fib]
+30.6 +24.8 71 +43 +45 опасность
перегрева
1006.7 1002.0
12 13.01 ЮВ 2 5000 м зарница 10/0
[Cb cap As op]
+27.8 +26.1 90 +42 +42 опасность
перегрева
1008.3 1003.6 +30.7
15 13.01 штиль 0 2000 м мгла 9/0
[Cb cap As op]
+26.2 +24.5 90 +37 +37 очень
душно
1010.1 1005.4
00 14.01 штиль 0 8000 м 8/6
[Cu hum Ac As Ci fib]
+23.9 +23.0 95 +32 +33 очень
душно
1010.1 1005.3 +23.3
03 14.01 З 1 8000 м 8/0 2000 м
[Cu med, cong As trans Ci fib]
+28.8 +24.3 77 +40 +52 опасность
солнечного
удара
1010.3 1005.6
06 14.01 З 1 10 км 8/0 2000 м
[Cu med, cong As trans Ci fib]
+31.6 +24.4 66 +44 +56 опасность
перегрева
1008.2 1003.6
09 14.01 З 2 10 км 9/0
[Cb cap As op Ci fib]
+30.0 +25.1 75 +43 +45 опасность
перегрева
1006.6 1001.9
12 14.01 СЗ 2 4000 м гроза без осадков 10/0
[Cb cap As op]
+25.4 +23.4 89 +34 +34 очень
душно
1010.2 1005.4 +32.5
15 14.01 штиль 0 1000 м слабый дождь {гроза} 10/0
[Cb cap As op]
+24.4 +23.1 92 +32 +32 очень
душно
1011.7 1007.0
00 15.01 штиль 0 4000 м мгла 10/6 300 м
[Cu med, cong As op]
+23.1 +22.6 97 +32 +32 очень
душно
1011.8 1007.0 +23.0 1
03 15.01 В 2 10 км 10/0 2000 м
[Cu med, cong As op]
+26.4 +23.4 84 +36 +39 очень
душно
1012.2 1007.4
06 15.01 Ю 2 10 км 9/0 2000 м
[Cu med, cong Ac As]
+29.4 +23.6 71 +40 +47 очень
душно
1010.2 1005.4
09 15.01 штиль 0 10 км 8/0 2000 м
[Cu med, cong Ac As Ci fib]
+31.0 +23.4 64 +42 +44 опасность
перегрева
1008.0 1003.2
12 15.01 штиль 0 6000 м 8/0 2000 м
[Cu med, cong As trans Ci fib]
+28.5 +25.2 82 +41 +41 опасность
перегрева
1009.7 1004.9 +31.5
15 15.01 СЗ 2 3000 м мгла 9/0 2000 м
[Cu med, cong As op Ci fib]
+26.1 +24.1 89 +36 +36 очень
душно
1011.4 1006.6
00 16.01 штиль 0 10 км 9/6
[Cu hum Ac As Ci fib]
+22.9 +22.0 95 +31 +32 очень
душно
1011.5 1006.7 +22.9
03 16.01 З 2 10 км 8/0 2000 м
[Cu med, cong Ac As Ci fib]
+28.5 +21.6 66 +36 +46 очень
душно
1011.4 1006.7
06 16.01 СЗ 3 10 км 8/0 2000 м
[Cu med, cong Ac As Ci fib]
+31.8 +23.4 61 +43 +52 опасность
перегрева
1008.9 1004.1
09 16.01 Ю 4 8000 м осадки на расстоянии 8/0
[Cb cap As op Ci fib]
+30.5 +23.0 64 +40 +42 очень
душно
1007.4 1002.6
12 16.01 СВ 2 5000 м в посл. час гроза {дождь} 10/0
[Cb cap As op]
+24.5 +23.1 92 +33 +33 очень
душно
1009.9 1005.1 +33.1
15 16.01 штиль 0 2000 м мгла {дождь} 10/0
[Cb cap As op]
+24.1 +23.1 94 +32 +32 очень
душно
1011.8 1007.0
00 17.01 штиль 0 2000 м дымка 10/0 2000 м
[Cu med, cong As op]
+23.6 +23.1 97 +31 +32 очень
душно
1012.2 1007.4 +22.5
03 17.01 ЮЗ 2 7000 м 10/0 2000 м
[Cu med, cong As op Ci fib]
+27.6 +23.3 77 +37 +46 очень
душно
1012.3 1007.5
06 17.01 ЮЗ 2 10 км 9/0 2000 м
[Cu med, cong As op Ci fib]
+29.2 +24.3 75 +41 +51 опасность
перегрева
1009.7 1004.9

 

Местоположение метеостанции Nangapinoh (Индонезия): широта -0.35 долгота 111.78 высота над уровнем моря 37 м.

В архиве по умолчанию представлена погода в Nangapinoh за последнюю неделю. Архивные данные за месяц целиком и за предыдущие месяцы, начиная с января 2011 года, Вы можете получить, выбрав интересующий диапазон дат из раскрывающегося списка и нажав кнопку "Ввод!".

Внимание! Время в таблицах - всемирное. Для получения местного времени необходимо прибавить поправку, которая в Nangapinoh равна 7 ч.

Ветер - указаны скорость ветра в м/с - средняя за 10 мин, порывы в срок и между сроками (в фигурных скобках) и направление, откуда дует ветер: С - северный, СВ - северо-восточный, В - восточный, ЮВ - юго-восточный, Ю - южный, ЮЗ - юго-западный, З - западный, СЗ - северо-западный.
Видимость - горизонтальная дальность видимости в метрах или километрах. При видимости от 1 до 10 км при отсутствии осадков обычно наблюдается дымка, при ухудшении видимости до 1 км и менее - туман. В сухую погоду видимость может ухудшаться дымом, пылью или мглою.
Явления - указаны атмосферные явления, наблюдавшиеся в срок или в последний час перед сроком; фигурными скобками обозначены явления, наблюдавшиеся между сроками (за 1-3 часа до срока); квадратными скобками обозначены град или гололедные отложения с указанием их диаметра в мм.
Облачность - указаны через наклонную черту общая и нижняя облачность в баллах и высота нижней границы облаков в метрах; квадратными скобками обозначены формы облаков: Ci - перистые, Cs - перисто-слоистые, Cc - перисто-кучевые, Ac - высококучевые, As - высокослоистые, Sc - слоисто-кучевые, Ns - слоисто-дождевые, Cu - кучевые, Cb - кучево-дождевые. Подробнее классификацию облаков см. в Атласе облаков (PDF).
T - Температура воздуха - температура, измеренная на высоте 2 м над землей.
Td - Температура точки росы - температура, при понижении до которой содержащийся в воздухе водяной пар достигнет насыщения.
f - Относительная влажность воздуха - влажноcть воздуха, измеренная на высоте 2 м над землей.
Te - Эффективная температура - температура, которую ощущает одетый по сезону человек в тени. Характеристика душности погоды. При расчете учитывается влияние влажности воздуха и скорости ветра на теплоощущения человека.
Tes - Эффективная температура на солнце - температура, которую ощущает человек, с поправкой на солнечный нагрев. Характеристика знойности погоды. Зависит от высоты солнца над горизонтом, облачности и скорости ветра. Ночью, в пасмурную погоду, а также при ветре 12 м/с и более поправка равна нулю.
P - Атмосферное давление - приведенное к уровню моря атмосферное давление.
Po - Атмосферное давление - измеренное на уровне метеостанции атмосферное давление.
Tmin - Минимальная температура - минимум температуры воздуха на высоте 2 м над землей.
Tmax - Максимальная температура - максимум температуры воздуха на высоте 2 м над землей.
R - Количество осадков - Количество выпавших осадков, мм. При наведении курсора мыши на число - период времени, за который выпало указанное количество осадков.
S - Снежный покров - Высота снежного покрова, см. При наведении курсора мыши на число - состояние снежного покрова и степень покрытия местности в баллах.